| time (UTC) | temp C | wind direction | speed KPH | gust KPH | rain 1hr cm | rain 24hr cm | rain mn cm | humidity % | barometer mb |
| 20260505083035 | 18 | 148 | 1.6 | 9.7 | 0.00 | 0.00 | 0.00 | 58 | 1015.4 |
| 20260505081538 | 18 | 133 | 0.0 | 6.4 | 0.00 | 0.00 | 0.00 | 56 | 1015.2 |
| 20260505080036 | 19 | 126 | 1.6 | 6.4 | 0.00 | 0.00 | 0.00 | 52 | 1014.9 |
| 20260505074524 | 20 | 169 | 1.6 | 6.4 | 0.00 | 0.00 | 0.00 | 45 | 1014.6 |
| 20260505073024 | 20 | 188 | 3.2 | 9.7 | 0.00 | 0.00 | 0.00 | 44 | 1014.2 |
| 20260505071528 | 21 | 188 | 3.2 | 9.7 | 0.00 | 0.00 | 0.00 | 43 | 1014.0 |
| 20260505070027 | 21 | 213 | 3.2 | 9.7 | 0.00 | 0.00 | 0.00 | 41 | 1013.9 |
| 20260505064523 | 22 | 203 | 3.2 | 11.3 | 0.00 | 0.00 | 0.00 | 40 | 1013.6 |
| 20260505063033 | 22 | 200 | 6.4 | 11.3 | 0.00 | 0.00 | 0.00 | 38 | 1013.4 |
| 20260505061529 | 23 | 219 | 6.4 | 12.9 | 0.00 | 0.00 | 0.00 | 39 | 1013.3 |
| 20260505060022 | 23 | 234 | 4.8 | 12.9 | 0.00 | 0.00 | 0.00 | 40 | 1013.4 |
| 20260505054523 | 23 | 219 | 4.8 | 11.3 | 0.00 | 0.00 | 0.00 | 38 | 1013.2 |
| 20260505053020 | 23 | 247 | 3.2 | 11.3 | 0.00 | 0.00 | 0.00 | 40 | 1013.2 |
| 20260505051520 | 23 | 271 | 3.2 | 11.3 | 0.00 | 0.00 | 0.00 | 40 | 1013.3 |
| 20260505041513 | 23 | 189 | 0.0 | 11.3 | 0.00 | 0.00 | 0.00 | 42 | 1012.9 |
| 20260505040013 | 23 | 227 | 4.8 | 12.9 | 0.00 | 0.00 | 0.00 | 41 | 1012.9 |
| 20260505034514 | 23 | 157 | 4.8 | 12.9 | 0.00 | 0.00 | 0.00 | 43 | 1012.8 |
| 20260505033020 | 22 | 228 | 3.2 | 17.7 | 0.00 | 0.00 | 0.00 | 43 | 1012.9 |
| 20260505031508 | 23 | 263 | 4.8 | 16.1 | 0.00 | 0.00 | 0.00 | 42 | 1013.1 |
| 20260505030007 | 22 | 191 | 9.7 | 16.1 | 0.00 | 0.00 | 0.00 | 43 | 1013.2 |
| 20260505024515 | 22 | 213 | 4.8 | 24.1 | 0.00 | 0.23 | 0.00 | 44 | 1013.4 |
| 20260505023003 | 22 | 268 | 8.0 | 17.7 | 0.00 | 0.23 | 0.00 | 45 | 1013.6 |
| 20260505021613 | 22 | 242 | 4.8 | 12.9 | 0.00 | 0.23 | 0.00 | 47 | 1013.7 |
| 20260505020101 | 21 | 264 | 3.2 | 14.5 | 0.00 | 0.23 | 0.00 | 48 | 1013.9 |
| 20260505014555 | 21 | 216 | 6.4 | 17.7 | 0.00 | 0.43 | 0.00 | 48 | 1014.0 |
| 20260505013056 | 20 | 281 | 4.8 | 16.1 | 0.00 | 0.43 | 0.00 | 52 | 1014.5 |
| 20260505011555 | 20 | 285 | 8.0 | 16.1 | 0.00 | 0.43 | 0.00 | 52 | 1014.6 |
| 20260505010047 | 20 | 284 | 3.2 | 16.1 | 0.00 | 0.43 | 0.00 | 54 | 1014.8 |
| 20260505004547 | 20 | 279 | 4.8 | 17.7 | 0.00 | 0.46 | 0.00 | 54 | 1015.0 |
| 20260505003042 | 19 | 268 | 4.8 | 16.1 | 0.00 | 0.46 | 0.00 | 57 | 1015.2 |
| 20260505001540 | 18 | 284 | 6.4 | 16.1 | 0.00 | 0.46 | 0.00 | 58 | 1015.2 |
| 20260505000039 | 18 | 290 | 4.8 | 17.7 | 0.00 | 0.46 | 0.00 | 58 | 1015.3 |
| 20260504234533 | 18 | 295 | 3.2 | 12.9 | 0.00 | 0.51 | 0.00 | 60 | 1015.4 |
| 20260504233029 | 18 | 263 | 1.6 | 14.5 | 0.00 | 0.51 | 0.00 | 61 | 1015.4 |
| 20260504231526 | 17 | 289 | 4.8 | 12.9 | 0.00 | 0.51 | 0.00 | 66 | 1015.5 |
| 20260504230026 | 17 | 327 | 4.8 | 9.7 | 0.00 | 0.51 | 0.00 | 68 | 1015.5 |
| 20260504224523 | 16 | 310 | 4.8 | 9.7 | 0.00 | 0.51 | 0.00 | 72 | 1015.6 |
| 20260504223020 | 15 | 284 | 1.6 | 6.4 | 0.00 | 0.51 | 0.00 | 76 | 1015.6 |
| 20260504221518 | 14 | 302 | 0.0 | 6.4 | 0.00 | 0.51 | 0.00 | 80 | 1015.7 |
| 20260504220021 | 13 | 9 | 0.0 | 8.0 | 0.00 | 0.51 | 0.00 | 83 | 1015.4 |
| 20260504214513 | 13 | 11 | 3.2 | 8.0 | 0.00 | 0.51 | 0.00 | 85 | 1015.0 |
| 20260504213009 | 12 | 23 | 3.2 | 8.0 | 0.00 | 0.51 | 0.00 | 89 | 1014.7 |
| 20260504211505 | 12 | 340 | 3.2 | 6.4 | 0.00 | 0.51 | 0.00 | 94 | 1014.5 |
| 20260504210006 | 11 | 213 | 0.0 | 1.6 | 0.00 | 0.51 | 0.00 | 92 | 1014.3 |
| 20260504204502 | 11 | 213 | 0.0 | 0.0 | 0.00 | 0.51 | 0.00 | 92 | 1014.1 |
| 20260504203059 | 11 | 213 | 0.0 | 0.0 | 0.00 | 0.51 | 0.00 | 91 | 1013.7 |
| 20260504201559 | 12 | 213 | 0.0 | 1.6 | 0.00 | 0.51 | 0.00 | 92 | 1013.6 |
| 20260504194550 | 12 | 213 | 0.0 | 3.2 | 0.00 | 0.51 | 0.00 | 93 | 1013.4 |
| 20260504193049 | 12 | 213 | 0.0 | 3.2 | 0.00 | 0.51 | 0.00 | 93 | 1013.2 |
| 20260504191546 | 12 | 210 | 0.0 | 0.0 | 0.00 | 0.51 | 0.00 | 92 | 1013.1 |
| 20260504190045 | 12 | 210 | 0.0 | 0.0 | 0.00 | 0.51 | 0.00 | 92 | 1013.1 |
| 20260504184543 | 12 | 210 | 0.0 | 0.0 | 0.00 | 0.51 | 0.00 | 92 | 1012.9 |
| 20260504183040 | 12 | 210 | 0.0 | 1.6 | 0.00 | 0.51 | 0.00 | 91 | 1012.6 |
| 20260504181543 | 13 | 210 | 0.0 | 0.0 | 0.00 | 0.51 | 0.00 | 90 | 1012.4 |
| 20260504180036 | 13 | 210 | 0.0 | 0.0 | 0.00 | 0.51 | 0.00 | 91 | 1012.4 |
| 20260504174534 | 13 | 210 | 0.0 | 0.0 | 0.00 | 0.51 | 0.00 | 90 | 1012.4 |
| 20260504173032 | 13 | 210 | 0.0 | 0.0 | 0.00 | 0.51 | 0.00 | 90 | 1012.4 |
| 20260504171530 | 14 | 210 | 0.0 | 0.0 | 0.00 | 0.51 | 0.00 | 89 | 1012.5 |